Location: Callanans Corners
(42.5326°N, 73.8846°W)
Time: 14:25:09
(UTC+00:00)

Spot 1 - Pass Details

Date: 06 October 2022
Orbit: 575 x 774 km, 98.8° (Epoch: 28 November)

Event Time Altitude Azimuth Distance (km) Brightness Sun altitude
Rises 23:30:26 0° 12° (NNE) 2,847 7.4 -12.3°
Reaches altitude 10° 23:32:38 10° 12° (NNE) 1,923 6.5 -12.7°
Maximum altitude 23:36:46 81° 285° (WNW) 592 4.0 -13.5°
Drops below altitude 10° 23:40:49 10° 199° (SSW) 1,878 6.7 -14.2°
Sets 23:42:56 0° 198° (SSW) 2,775 7.6 -14.6°
